Theta_e
301 300 299 299 299 300 300 300 300 301 302 301 301 301 301 301 301 301 303 303 304 304 305 305 305 305 308 309 313 313 315 317 320 319 319 321 322 323 324 328 329 328 328 327 330 332 333 331 331 335 334 331 334 335
302 302 302 301 300 299 299 299 299 300 300 301 302 301 301 301 300 301 303 303 302 302 304 305 305 305 305 306 307 309 312 314 317 321 319 321 322 323 324 325 329 330 329 330 330 331 333 334 332 332 332 333 333 333
301 301 302 301 301 301 301 301 302 302 301 301 301 300 300 300 301 301 303 303 302 301 302 303 304 305 304 304 305 309 311 312 312 310 315 322 324 323 324 324 327 329 329 331 332 332 332 333 333 334 337 336 336 338
301 301 301 301 301 301 301 301 301 301 301 302 302 302 302 302 302 301 303 302 301 301 303 304 305 306 306 306 305 306 309 309 309 309 313 321 323 324 326 324 325 327 330 331 333 333 334 332 333 334 336 337 336 337
301 301 301 301 301 301 301 301 301 302 302 302 302 302 302 304 303 303 303 303 302 302 304 304 305 308 307 306 305 305 307 307 308 311 317 321 323 325 328 331 326 326 331 330 329 331 333 332 336 336 336 338 338 340
301 301 301 301 301 301 302 302 302 303 304 304 304 305 305 305 304 304 304 304 303 302 301 306 308 310 309 307 308 309 309 309 309 314 317 319 323 329 326 326 328 327 333 336 339 340 342 344 343 342 339 340 341 343
301 301 301 302 302 302 302 302 303 304 305 306 307 308 306 305 305 304 306 305 303 303 302 306 309 309 308 308 310 311 310 308 311 314 318 320 325 326 330 330 328 337 336 336 337 339 341 343 345 343 343 343 344 346
302 301 301 301 301 301 302 303 304 304 306 307 308 307 306 306 306 305 305 304 304 304 303 307 309 310 310 310 311 310 309 310 314 316 322 326 327 327 331 329 335 337 338 339 339 339 344 344 345 344 344 344 345 346
305 303 302 302 301 301 302 303 304 305 307 308 308 307 307 307 306 306 306 305 306 304 305 307 307 315 311 311 312 312 314 318 316 322 324 326 330 330 330 336 337 338 339 340 339 340 341 343 344 344 344 344 345 345
308 307 306 306 307 306 305 305 307 307 308 309 308 307 309 306 306 305 307 304 303 304 305 308 311 314 312 313 313 315 316 316 319 323 322 326 328 330 333 334 336 337 338 338 340 341 341 343 343 342 343 343 344 343
311 309 308 308 308 308 308 307 307 308 310 310 311 310 308 308 307 304 302 306 305 308 308 311 313 315 313 317 317 315 318 318 322 323 325 328 330 333 330 331 335 337 338 340 340 341 342 342 341 341 341 340 340 339
311 311 310 309 309 308 308 308 308 310 310 309 310 310 309 308 309 306 305 307 309 312 312 314 314 315 318 318 320 319 320 320 323 323 326 328 333 329 329 329 334 337 337 338 339 340 341 340 339 339 339 339 337 336
313 312 311 310 309 308 308 309 310 311 310 310 310 311 313 312 309 309 314 310 309 309 311 313 317 317 318 319 320 321 320 321 320 324 327 329 328 328 328 329 331 334 336 336 337 337 338 337 337 336 334 334 332 332
314 312 310 309 309 308 309 311 311 311 310 312 312 319 313 311 308 307 309 309 310 312 311 315 317 319 319 321 320 322 322 322 322 326 327 329 327 329 327 328 329 332 333 335 335 335 334 335 333 331 330 329 330 329
315 313 311 310 310 309 309 310 309 310 311 312 312 309 307 309 312 314 314 314 314 315 317 318 319 320 322 321 322 322 322 321 322 327 327 325 326 326 326 328 326 328 330 331 332 333 333 332 329 328 328 328 327 327
315 315 311 311 310 309 309 311 310 310 311 312 312 311 313 313 314 314 314 316 315 317 318 318 319 321 322 323 322 324 324 324 324 323 323 323 325 326 326 326 327 327 327 329 329 328 329 327 327 327 328 327 327 325
316 315 313 312 312 312 312 312 312 312 313 313 313 314 315 315 315 316 316 315 314 317 319 317 317 318 318 321 322 322 321 320 321 320 321 323 324 326 326 325 326 327 327 327 327 327 326 326 325 324 325 323 323 322
315 315 314 312 311 313 313 313 313 315 316 315 316 316 316 316 317 317 317 317 317 316 316 316 314 316 312 315 320 320 320 322 319 319 321 323 324 325 325 325 326 325 325 325 326 326 325 325 324 323 322 321 320 318
315 314 314 313 313 313 315 314 314 316 316 316 316 316 316 316 315 316 317 317 316 316 317 317 318 319 318 317 318 317 317 318 318 318 318 320 322 324 324 324 324 322 322 324 325 325 324 324 324 323 322 321 320 317
316 314 313 313 314 315 316 316 315 316 316 316 316 316 315 315 315 315 315 316 317 317 317 318 318 317 318 318 317 316 315 316 316 317 316 317 318 321 322 322 322 322 323 323 323 323 323 323 323 322 321 320 320 318
316 316 315 314 314 314 316 317 317 316 317 316 317 316 315 315 315 315 315 314 316 317 317 317 317 316 316 318 318 317 316 315 316 316 317 317 315 316 319 319 320 320 317 317 317 317 318 319 317 317 317 317 316 315
316 316 317 316 315 315 318 314 317 316 317 316 316 315 316 316 316 316 315 315 316 316 316 317 317 316 316 317 316 317 318 318 317 314 314 315 316 315 314 314 314 313 313 314 313 314 314 313 313 312 314 314 314 314
317 316 317 317 319 318 319 316 317 316 316 316 315 315 315 315 316 315 316 315 316 316 317 317 318 318 315 315 316 318 318 317 317 318 317 316 317 316 315 316 316 316 316 316 316 315 315 314 313 314 314 313 313 313
317 317 318 321 319 319 319 317 317 316 316 316 316 316 316 316 315 315 317 316 315 315 315 316 315 315 314 314 314 314 314 315 315 315 315 316 317 317 317 316 317 317 317 317 318 317 317 316 314 314 314 314 315 315
317 317 319 317 319 317 316 316 317 317 317 317 316 316 316 316 316 316 316 315 315 315 315 315 315 315 314 314 314 314 314 314 314 314 314 314 315 316 316 316 317 318 318 318 317 317 316 317 318 318 317 317 317 317
319 320 319 318 318 317 316 316 315 316 316 317 317 316 316 316 315 316 316 315 315 315 315 315 314 314 314 314 314 313 313 313 313 313 314 314 314 314 314 314 315 314 314 315 315 316 316 316 316 316 316 316 315 315
320 320 319 318 319 318 317 317 316 315 315 316 316 316 316 315 316 316 316 316 315 315 315 315 314 314 313 313 313 313 312 312 313 313 314 314 313 312 313 313 313 311 312 312 312 313 313 313 313 313 313 313 313 313
323 323 321 320 319 318 318 317 316 316 315 314 315 316 315 316 316 316 315 315 315 315 314 314 314 313 313 312 311 311 310 310 310 310 311 312 311 309 308 309 309 308 309 310 309 310 310 311 311 311 311 312 312 312
323 322 322 321 319 318 318 318 317 316 315 316 316 316 316 316 316 316 315 314 315 315 314 314 313 313 312 312 311 309 308 307 307 307 308 308 308 307 306 306 305 305 305 306 306 306 307 307 307 307 308 309 309 310
323 322 323 321 321 319 319 319 320 320 317 316 316 316 316 316 316 315 316 316 315 314 313 313 312 311 311 310 310 308 307 306 305 304 304 304 304 304 304 304 303 303 304 305 306 306 306 307 307 307 308 308 309 309
323 322 321 321 320 320 320 320 320 319 317 316 316 316 317 317 317 316 316 316 315 314 314 313 310 309 310 309 307 306 305 305 304 303 302 302 302 303 302 302 302 302 302 303 304 305 306 306 306 306 305 306 305 305
322 321 321 322 322 322 321 321 321 320 319 318 318 318 318 318 318 317 314 314 313 312 311 311 311 309 308 307 306 305 304 304 303 302 301 300 299 300 300 301 301 301 302 302 302 302 302 303 303 304 304 303 303 303
322 321 321 320 320 321 321 321 321 321 321 320 320 320 320 319 319 315 312 312 312 311 311 310 309 308 307 306 306 305 304 304 303 302 301 300 299 297 299 299 299 300 300 300 300 300 300 300 300 301 301 301 300 300
Wind_Speed
21 21 20 19 18 17 17 17 15 14 13 11 10 10 11 10 10 9 9 9 8 8 18 18 16 14 12 7 6 9 5 7 8 13 17 12 12 16 15 17 18 16 12 12 14 14 17 11 16 24 13 20 12 18
21 21 21 20 18 17 16 15 14 12 12 13 12 12 11 11 11 11 9 9 9 12 15 16 18 17 18 19 13 8 8 5 7 6 10 13 11 12 17 15 12 15 17 13 12 14 4 12 18 22 22 17 23 23
20 20 20 19 19 18 16 15 14 13 12 11 11 12 12 12 12 13 12 9 8 11 22 20 18 14 21 26 20 11 5 2 4 9 8 5 9 12 15 18 14 16 14 10 12 15 16 16 11 12 13 18 16 18
20 21 20 20 19 18 17 16 16 15 15 15 16 16 15 14 13 13 12 10 8 7 7 5 3 6 5 15 25 26 13 7 12 14 9 5 7 9 9 13 19 11 14 15 15 13 11 22 20 22 16 13 13 15
21 21 21 21 20 19 19 18 17 16 17 20 21 19 18 17 16 15 14 15 15 10 6 17 20 9 14 14 17 20 17 17 15 10 6 6 6 3 9 5 12 21 9 15 12 19 16 16 19 22 19 16 12 14
20 20 20 21 20 20 18 19 20 20 22 24 25 24 20 18 14 10 5 5 16 20 3 3 6 2 4 17 16 12 11 10 12 7 7 9 10 5 9 14 12 9 6 7 2 3 6 9 7 12 16 14 13 16
20 20 21 21 21 21 21 22 23 24 26 27 23 21 14 12 14 10 4 3 1 10 4 3 3 3 14 18 9 6 6 6 8 9 9 13 9 7 9 13 13 1 6 13 12 8 7 8 3 10 12 13 16 17
21 22 22 23 23 23 24 24 26 26 28 24 21 9 7 8 9 16 16 16 12 8 5 3 2 4 18 15 7 8 5 7 8 6 9 8 11 8 6 14 3 6 8 10 9 12 8 4 5 9 12 15 19 20
23 23 24 24 25 25 25 25 25 26 25 21 14 5 5 11 8 7 9 12 12 6 3 4 2 3 18 13 7 12 14 6 4 4 5 4 7 7 7 5 8 7 7 10 11 9 10 6 8 11 13 14 15 18
24 23 23 24 25 25 25 22 26 22 19 15 5 2 4 5 8 4 9 9 14 6 6 4 4 1 16 16 8 5 8 3 2 4 4 5 7 2 3 8 9 10 11 9 10 12 13 12 12 13 14 13 13 16
26 24 24 24 24 21 20 22 22 19 13 3 3 3 8 6 10 4 3 4 6 4 7 6 5 2 11 10 6 11 3 3 3 3 4 4 7 2 10 10 8 6 5 6 9 9 11 12 13 14 14 13 15 17
28 25 23 21 19 22 20 18 18 18 11 6 7 10 4 5 3 1 3 3 4 3 2 2 3 5 5 7 7 4 3 3 3 6 4 3 3 7 10 10 6 3 2 2 4 7 10 13 15 16 17 18 19 21
26 24 21 17 19 19 18 16 16 16 10 3 4 3 2 2 1 2 4 0 2 2 3 7 5 4 4 4 2 2 4 3 2 4 4 2 6 6 8 7 5 2 2 5 9 11 13 15 17 19 22 22 26 33
25 21 20 17 19 17 15 15 17 16 5 3 5 5 6 4 3 4 4 4 10 7 15 8 3 4 4 5 1 3 2 3 2 4 4 6 11 7 7 6 3 3 4 7 10 13 16 17 19 20 22 26 31 35
25 21 21 18 20 16 12 15 16 15 7 7 8 6 4 11 19 13 13 1 1 2 7 6 4 4 3 2 3 1 3 4 2 3 4 9 11 5 4 4 4 6 7 9 10 12 16 19 21 25 24 25 28 30
22 23 19 17 20 16 12 14 15 10 5 8 7 5 21 11 16 17 19 12 9 5 3 6 3 2 3 3 2 4 3 5 4 6 14 11 7 2 2 3 5 6 7 9 12 14 17 19 21 22 23 23 24 26
21 19 16 10 20 23 17 12 7 8 6 7 6 14 17 14 21 22 19 16 10 6 4 5 5 5 5 3 4 4 1 2 10 10 10 5 3 3 6 6 11 12 13 16 20 22 23 25 24 24 24 22 21 22
19 19 19 14 9 16 26 20 7 7 9 11 12 23 24 27 24 28 30 30 9 4 2 1 5 2 2 2 2 3 3 5 12 11 8 6 7 7 12 15 19 14 21 23 26 26 24 23 21 18 18 18 20 21
16 20 23 16 13 9 5 9 9 6 10 12 17 23 26 28 28 28 25 27 29 20 7 5 4 4 3 7 12 20 22 16 14 15 17 15 13 12 13 12 15 17 19 21 19 18 19 18 17 16 16 15 16 18
12 16 21 21 17 5 4 5 7 7 9 11 18 20 23 27 29 28 29 26 20 20 11 5 5 7 9 15 21 19 27 25 22 25 27 24 16 14 14 16 16 13 17 19 20 18 16 14 12 11 11 9 11 14
11 11 12 14 14 9 5 5 6 4 5 9 16 16 20 24 30 29 30 27 27 27 20 21 22 21 23 22 21 21 27 32 32 30 25 26 27 25 21 22 23 24 23 23 24 22 19 18 17 12 10 8 8 9
11 12 7 7 6 5 6 7 3 3 6 10 13 15 17 21 21 22 24 25 25 19 20 21 22 24 24 24 25 25 22 23 28 28 33 29 28 26 29 26 28 24 22 20 19 18 15 13 12 11 7 6 7 9
6 9 5 6 3 5 3 6 4 6 4 5 11 12 14 17 16 22 23 23 18 17 15 14 13 18 22 24 23 23 21 23 22 19 19 23 19 18 19 18 19 16 12 8 8 9 8 8 9 6 5 6 6 5
4 4 3 3 5 3 2 3 2 2 4 5 3 7 8 8 11 16 12 20 21 21 20 18 20 19 20 21 25 24 22 19 19 20 19 16 14 11 11 12 11 10 9 9 7 5 2 5 9 8 5 4 7 7
3 4 3 3 2 1 2 3 3 3 4 5 5 5 6 5 5 9 11 16 19 19 19 19 18 19 19 20 21 22 22 20 19 18 18 18 16 11 11 10 9 9 8 6 5 4 4 3 1 3 5 7 7 7
2 2 3 5 2 3 4 4 4 4 3 3 4 3 3 3 4 5 8 14 14 15 14 15 15 16 17 17 18 19 20 19 17 15 14 14 13 13 13 14 12 10 10 8 7 6 6 5 5 6 8 10 10 9
0 2 2 2 2 2 0 2 2 3 3 4 2 2 2 3 4 5 6 8 9 9 9 10 11 14 14 14 16 16 17 17 16 12 8 8 10 11 10 10 10 11 10 10 9 9 9 10 10 10 10 10 11 11
1 1 2 2 1 0 2 2 3 3 3 2 1 3 2 2 3 4 4 6 6 6 7 9 10 11 12 13 14 16 17 16 14 13 9 5 7 10 12 10 11 14 11 11 12 10 11 11 11 12 12 14 16 16
1 1 3 2 1 1 0 1 2 2 2 1 1 2 2 2 0 1 1 1 3 4 6 7 9 11 12 13 13 15 15 17 18 18 16 15 15 15 16 16 15 15 15 15 16 16 16 16 16 16 16 17 18 20
0 1 2 1 2 2 2 1 1 2 4 3 1 2 3 4 4 3 2 3 3 1 3 5 9 12 13 13 15 17 13 14 16 16 18 18 19 18 17 17 17 17 16 15 15 15 14 15 15 14 15 15 16 14
1 1 0 0 1 1 2 4 4 3 4 5 6 6 4 3 4 3 2 2 0 1 2 7 7 10 12 13 14 13 12 13 15 17 19 18 16 15 15 16 15 14 14 13 13 12 12 12 12 10 9 8 9 9
2 1 1 1 1 1 2 2 3 4 4 5 6 5 3 4 6 2 1 3 5 1 5 9 16 8 9 9 9 9 11 12 13 14 18 20 19 17 16 13 14 13 13 13 12 12 12 12 12 10 10 9 8 8
2 2 2 2 2 1 1 2 2 2 3 3 3 3 4 5 4 1 3 5 3 3 8 5 6 8 7 7 8 9 11 12 13 17 20 22 23 20 13 11 11 11 11 12 12 13 13 12 12 12 12 11 10 11
Wind_Direction
347 343 339 337 333 327 326 326 320 322 319 317 306 295 290 285 300 305 300 271 251 266 280 273 260 260 248 238 276 27 265 200 219 221 219 210 218 213 231 204 177 187 189 196 213 214 234 219 203 209 222 224 220 205
342 342 343 341 339 335 333 331 329 327 317 310 310 303 297 289 289 294 289 283 272 264 263 279 269 260 248 252 266 260 319 330 342 250 213 220 216 211 210 218 188 211 206 191 211 206 146 193 210 213 235 224 221 226
337 339 339 340 340 340 340 339 338 335 332 326 320 313 306 297 288 282 271 272 273 281 290 264 268 273 246 237 228 244 220 317 96 358 318 290 234 219 208 226 199 224 215 225 187 226 220 222 224 235 237 243 247 236
330 331 333 331 333 333 332 329 327 327 326 321 312 306 298 293 289 278 267 266 243 282 279 301 265 279 247 227 215 216 240 289 300 315 282 265 223 230 235 225 230 223 188 221 219 231 211 228 237 245 250 246 234 227
322 323 325 323 322 322 322 321 321 322 321 315 305 291 294 288 291 275 260 250 240 239 294 300 295 280 233 219 201 210 239 263 277 283 239 232 241 248 238 281 234 221 224 216 227 219 222 238 231 235 230 231 222 203
320 320 322 320 321 321 321 320 321 322 320 314 304 301 290 277 273 271 279 232 223 220 244 281 327 283 175 173 165 174 232 239 247 261 254 248 248 253 225 225 226 230 237 278 290 344 233 254 257 212 213 210 199 184
317 316 316 316 318 318 318 319 319 316 321 322 315 304 279 250 228 207 269 175 197 191 234 266 255 264 158 155 149 175 206 235 245 254 238 255 228 213 250 233 199 230 262 261 263 272 254 225 249 200 193 182 171 165
316 313 313 313 314 316 317 317 317 314 323 322 320 301 258 238 217 237 246 262 258 201 236 267 241 212 173 168 141 192 227 236 229 247 251 243 217 221 249 231 313 282 282 265 248 237 248 271 185 174 165 167 164 161
323 315 312 312 313 316 316 319 319 318 324 321 313 301 195 201 203 232 228 239 233 208 264 234 239 146 172 160 149 190 218 190 287 229 229 253 227 220 214 296 288 293 288 280 281 245 230 223 180 164 163 167 166 162
325 323 321 321 319 319 319 322 321 328 324 319 302 224 224 220 219 228 168 160 191 216 229 262 243 181 181 170 166 180 232 184 213 236 201 238 241 213 323 309 292 280 272 265 249 225 212 200 186 174 170 166 170 166
332 327 323 323 327 330 331 330 329 336 345 344 246 244 248 231 172 180 203 201 183 225 214 223 239 220 177 187 151 218 171 199 222 204 224 223 213 120 328 321 310 289 247 235 247 245 222 199 179 165 157 156 158 157
338 333 330 330 331 335 340 340 337 339 330 289 271 282 259 194 162 204 198 213 218 250 232 255 267 193 157 191 201 182 174 194 266 327 225 237 88 345 346 337 320 302 289 241 181 178 173 166 162 157 152 151 153 150
347 345 346 350 342 344 350 350 347 343 342 342 291 268 231 163 326 346 359 140 244 250 230 203 186 193 174 210 224 212 182 206 105 245 207 117 18 349 352 335 333 324 112 121 125 131 139 143 143 147 142 143 145 152
355 358 5 358 358 360 5 2 358 2 7 318 327 355 16 346 331 247 249 235 252 199 203 194 242 221 174 183 133 237 136 139 235 232 142 58 5 351 349 2 38 74 115 128 129 134 138 139 137 136 139 150 151 145
4 4 7 15 3 3 12 15 12 15 21 12 24 352 320 293 306 337 358 85 51 300 144 175 169 194 175 199 228 284 199 225 340 19 27 355 345 331 339 12 64 80 104 117 122 133 133 130 128 132 135 137 140 139
1 12 20 27 21 23 28 33 33 35 40 18 3 311 337 338 4 10 15 30 34 9 62 39 17 329 78 323 213 16 345 12 354 323 318 324 308 208 160 57 75 75 89 107 116 127 128 129 128 128 128 131 134 135
9 11 21 28 39 46 45 17 18 42 38 15 342 2 351 357 7 17 29 51 30 30 37 20 32 3 304 16 21 354 350 294 315 328 304 293 224 115 120 99 95 102 116 120 120 121 118 118 115 116 114 118 123 130
12 23 25 38 47 53 45 37 38 48 24 17 8 14 21 35 27 28 24 37 64 92 105 117 177 173 147 229 244 339 17 358 32 48 61 95 112 113 105 107 108 121 117 109 107 103 101 103 105 107 112 118 123 135
19 27 34 33 23 32 27 24 34 38 24 20 23 28 29 30 35 39 39 53 49 50 62 41 39 11 27 352 15 29 30 30 34 53 58 66 108 108 92 99 111 105 111 108 108 111 112 115 117 124 130 136 138 146
29 38 35 33 33 39 51 28 22 34 16 1 26 32 40 40 41 41 46 46 55 52 46 47 43 13 15 45 52 55 42 45 50 50 50 52 67 98 103 102 105 109 110 110 111 114 117 114 121 126 134 137 148 155
18 30 34 27 32 45 68 31 48 20 351 27 26 32 40 41 43 36 44 42 52 52 52 53 55 59 58 52 50 54 60 60 61 65 54 54 64 79 94 95 94 95 94 95 95 92 93 101 99 88 107 122 147 156
352 10 21 29 35 44 50 31 39 359 36 47 38 42 41 40 37 41 45 49 49 48 43 46 50 46 43 46 46 51 53 60 66 67 57 62 65 71 77 78 83 85 86 88 91 93 95 97 106 110 105 122 140 158
344 6 31 28 60 46 34 21 19 19 31 26 50 49 45 43 39 51 52 52 48 41 42 40 45 47 45 45 43 40 40 47 49 55 64 69 73 80 88 93 89 79 83 96 97 104 118 126 129 131 139 146 161 182
22 31 26 42 37 72 32 27 10 20 48 37 34 56 41 28 35 45 49 44 41 45 40 35 35 36 43 42 45 38 32 41 48 43 40 47 58 60 65 71 66 70 75 70 75 77 112 192 191 186 186 252 241 246
26 19 20 28 31 355 25 16 359 20 34 31 44 53 39 4 64 62 47 31 38 35 32 31 36 36 32 34 33 34 31 28 33 44 35 35 38 47 49 50 54 52 42 33 39 36 46 69 140 186 218 235 242 252
73 31 22 11 47 339 3 17 20 7 5 31 51 50 12 34 41 35 27 26 36 29 31 31 27 36 38 35 29 24 20 17 17 23 23 26 27 28 26 20 41 37 24 11 2 344 323 315 290 275 270 263 258 259
229 130 117 2 346 322 274 54 29 12 33 26 30 30 35 41 51 51 34 23 17 21 23 25 26 29 26 20 17 13 9 9 11 2 357 11 18 23 17 8 3 350 352 344 340 331 320 310 304 298 292 285 283 282
360 285 283 9 358 16 345 26 42 44 53 45 289 40 43 36 47 32 36 27 35 32 36 38 33 22 15 13 9 7 7 7 6 5 6 8 8 4 10 0 344 347 349 330 329 321 310 304 298 294 291 290 289 285
312 323 289 262 277 174 111 30 55 78 95 7 83 77 132 138 178 177 137 66 13 18 24 19 15 7 4 2 2 3 6 6 5 2 357 345 338 333 333 332 328 325 320 313 310 314 307 304 300 294 291 289 285 288
118 307 286 288 259 201 127 47 357 286 227 243 238 189 212 212 211 209 250 290 303 343 37 31 21 12 5 6 359 354 358 359 4 360 346 336 329 325 325 327 328 328 325 324 320 315 313 315 312 306 299 292 291 291
166 214 185 276 293 226 279 294 295 265 229 236 237 265 275 219 224 233 268 289 181 96 12 354 12 26 352 354 359 4 7 3 3 3 357 350 337 330 328 330 330 327 326 326 324 322 324 321 325 328 333 337 326 320
187 242 234 228 162 258 310 274 260 267 267 259 255 256 236 251 267 211 312 135 152 130 39 11 336 2 353 356 359 1 4 357 355 0 1 3 354 339 333 335 329 330 333 335 334 329 332 333 328 325 322 325 325 322
187 201 225 246 215 215 206 290 249 266 256 284 299 295 282 292 326 75 211 180 210 218 326 14 355 336 326 344 345 349 351 345 343 347 341 349 347 347 341 331 335 335 332 332 331 330 328 328 329 327 324 323 321 322